﻿<?xml version="1.0" encoding="utf-8"?><gpx creator="Garmin Desktop App" version="1.1" xsi:schemaLocation="http://www.topografix.com/GPX/1/1 http://www.topografix.com/GPX/1/1/gpx.xsd http://www.garmin.com/xmlschemas/WaypointExtension/v1 http://www8.garmin.com/xmlschemas/WaypointExtensionv1.xsd http://www.garmin.com/xmlschemas/TrackPointExtension/v1 http://www.garmin.com/xmlschemas/TrackPointExtensionv1.xsd http://www.garmin.com/xmlschemas/GpxExtensions/v3 http://www8.garmin.com/xmlschemas/GpxExtensionsv3.xsd http://www.garmin.com/xmlschemas/ActivityExtension/v1 http://www8.garmin.com/xmlschemas/ActivityExtensionv1.xsd http://www.garmin.com/xmlschemas/AdventuresExtensions/v1 http://www8.garmin.com/xmlschemas/AdventuresExtensionv1.xsd http://www.garmin.com/xmlschemas/PressureExtension/v1 http://www.garmin.com/xmlschemas/PressureExtensionv1.xsd http://www.garmin.com/xmlschemas/TripExtensions/v1 http://www.garmin.com/xmlschemas/TripExtensionsv1.xsd http://www.garmin.com/xmlschemas/TripMetaDataExtensions/v1 http://www.garmin.com/xmlschemas/TripMetaDataExtensionsv1.xsd http://www.garmin.com/xmlschemas/ViaPointTransportationModeExtensions/v1 http://www.garmin.com/xmlschemas/ViaPointTransportationModeExtensionsv1.xsd http://www.garmin.com/xmlschemas/CreationTimeExtension/v1 http://www.garmin.com/xmlschemas/CreationTimeExtensionsv1.xsd http://www.garmin.com/xmlschemas/AccelerationExtension/v1 http://www.garmin.com/xmlschemas/AccelerationExtensionv1.xsd http://www.garmin.com/xmlschemas/PowerExtension/v1 http://www.garmin.com/xmlschemas/PowerExtensionv1.xsd http://www.garmin.com/xmlschemas/VideoExtension/v1 http://www.garmin.com/xmlschemas/VideoExtensionv1.xsd" xmlns="http://www.topografix.com/GPX/1/1" xmlns:xsi="http://www.w3.org/2001/XMLSchema-instance" xmlns:wptx1="http://www.garmin.com/xmlschemas/WaypointExtension/v1" xmlns:gpxtrx="http://www.garmin.com/xmlschemas/GpxExtensions/v3" xmlns:gpxtpx="http://www.garmin.com/xmlschemas/TrackPointExtension/v1" xmlns:gpxx="http://www.garmin.com/xmlschemas/GpxExtensions/v3" xmlns:trp="http://www.garmin.com/xmlschemas/TripExtensions/v1" xmlns:adv="http://www.garmin.com/xmlschemas/AdventuresExtensions/v1" xmlns:prs="http://www.garmin.com/xmlschemas/PressureExtension/v1" xmlns:tmd="http://www.garmin.com/xmlschemas/TripMetaDataExtensions/v1" xmlns:vptm="http://www.garmin.com/xmlschemas/ViaPointTransportationModeExtensions/v1" xmlns:ctx="http://www.garmin.com/xmlschemas/CreationTimeExtension/v1" xmlns:gpxacc="http://www.garmin.com/xmlschemas/AccelerationExtension/v1" xmlns:gpxpx="http://www.garmin.com/xmlschemas/PowerExtension/v1" xmlns:vidx1="http://www.garmin.com/xmlschemas/VideoExtension/v1">

  <metadata>
    <link href="http://www.garmin.com">
      <text>Garmin International</text>
    </link>
    <time>2015-11-23T16:42:17Z</time>
    <bounds maxlat="40.693545453250408" maxlon="14.680759990587831" minlat="40.689669996500015" minlon="14.67063263989985" />
  </metadata>

  <wpt lat="40.691059296950698" lon="14.67063263989985">
    <ele>1066</ele>
    <time>2015-01-09T13:09:52Z</time>
    <name>Fine 308a</name>
    <sym>Trail Head</sym>
    <type>user</type>
    <extensions>
      <gpxx:WaypointExtension>
        <gpxx:DisplayMode>SymbolAndName</gpxx:DisplayMode>
      </gpxx:WaypointExtension>
      <wptx1:WaypointExtension>
        <wptx1:DisplayMode>SymbolAndName</wptx1:DisplayMode>
      </wptx1:WaypointExtension>
      <ctx:CreationTimeExtension>
        <ctx:CreationTime>2015-01-09T13:09:52Z</ctx:CreationTime>
      </ctx:CreationTimeExtension>
    </extensions>
  </wpt>

  <wpt lat="40.693545453250408" lon="14.680559076368809">
    <ele>523.48828125</ele>
    <time>2015-01-09T13:09:36Z</time>
    <name>Inizio 308a</name>
    <sym>Trail Head</sym>
    <type>user</type>
    <extensions>
      <gpxx:WaypointExtension>
        <gpxx:DisplayMode>SymbolAndName</gpxx:DisplayMode>
      </gpxx:WaypointExtension>
      <wptx1:WaypointExtension>
        <wptx1:DisplayMode>SymbolAndName</wptx1:DisplayMode>
      </wptx1:WaypointExtension>
      <ctx:CreationTimeExtension>
        <ctx:CreationTime>2015-01-09T13:09:36Z</ctx:CreationTime>
      </ctx:CreationTimeExtension>
    </extensions>
  </wpt>

  <trk>
    <name>308a - Difficoltà: EE</name>
    <desc>Finestra</desc>
    <extensions>
      <gpxx:TrackExtension>
        <gpxx:DisplayColor>Red</gpxx:DisplayColor>
      </gpxx:TrackExtension>
    </extensions>
    <trkseg>
      <trkpt lat="40.693479990586638" lon="14.680590005591512">
        <ele>500.51208500000001</ele>
        <time>2014-11-06T22:48:29Z</time>
      </trkpt>
      <trkpt lat="40.693470016121864" lon="14.680580031126738">
        <ele>505.29745500000001</ele>
        <time>2014-11-06T22:48:29Z</time>
      </trkpt>
      <trkpt lat="40.69346004165709" lon="14.680580031126738">
        <ele>501.94464099999999</ele>
        <time>2014-11-06T22:48:29Z</time>
      </trkpt>
      <trkpt lat="40.693410001695156" lon="14.680580031126738">
        <ele>504.35253899999998</ele>
        <time>2014-11-06T22:48:29Z</time>
      </trkpt>
      <trkpt lat="40.693259965628386" lon="14.680680027231574">
        <ele>504.35253899999998</ele>
        <time>2014-11-06T22:48:29Z</time>
      </trkpt>
      <trkpt lat="40.693170027807355" lon="14.680759990587831">
        <ele>507.705353</ele>
        <time>2014-11-06T22:48:29Z</time>
      </trkpt>
      <trkpt lat="40.693040024489164" lon="14.680759990587831">
        <ele>510.60095200000001</ele>
        <time>2014-11-06T22:48:29Z</time>
      </trkpt>
      <trkpt lat="40.692919995635748" lon="14.68062998726964">
        <ele>510.11328099999997</ele>
        <time>2014-11-06T22:48:29Z</time>
      </trkpt>
      <trkpt lat="40.692789992317557" lon="14.680559998378158">
        <ele>511.54586799999998</ele>
        <time>2014-11-06T22:48:29Z</time>
      </trkpt>
      <trkpt lat="40.692369975149632" lon="14.680209970101714">
        <ele>514.44146699999999</ele>
        <time>2014-11-06T22:48:29Z</time>
      </trkpt>
      <trkpt lat="40.692169982939959" lon="14.680150039494038">
        <ele>512.52117899999996</ele>
        <time>2014-11-06T22:48:29Z</time>
      </trkpt>
      <trkpt lat="40.692039979621768" lon="14.680079966783524">
        <ele>513.95373500000005</ele>
        <time>2014-11-06T22:48:29Z</time>
      </trkpt>
      <trkpt lat="40.691939983516932" lon="14.679890032857656">
        <ele>515.41680899999994</ele>
        <time>2014-11-06T22:48:29Z</time>
      </trkpt>
      <trkpt lat="40.691900001838803" lon="14.679960021749139">
        <ele>515.41680899999994</ele>
        <time>2014-11-06T22:48:29Z</time>
      </trkpt>
      <trkpt lat="40.691890027374029" lon="14.680290017277002">
        <ele>520.68988000000002</ele>
        <time>2014-11-06T22:48:29Z</time>
      </trkpt>
      <trkpt lat="40.691890027374029" lon="14.680279958993196">
        <ele>518.76959199999999</ele>
        <time>2014-11-06T22:48:29Z</time>
      </trkpt>
      <trkpt lat="40.691890027374029" lon="14.680279958993196">
        <ele>522.61004600000001</ele>
        <time>2014-11-06T22:48:29Z</time>
      </trkpt>
      <trkpt lat="40.691890027374029" lon="14.680279958993196">
        <ele>516.84936500000003</ele>
        <time>2014-11-06T22:48:29Z</time>
      </trkpt>
      <trkpt lat="40.691879969090223" lon="14.680269984528422">
        <ele>520.20214799999997</ele>
        <time>2014-11-06T22:48:29Z</time>
      </trkpt>
      <trkpt lat="40.691800005733967" lon="14.680329998955131">
        <ele>522.12237500000003</ele>
        <time>2014-11-06T22:48:29Z</time>
      </trkpt>
      <trkpt lat="40.691719958558679" lon="14.680160013958812">
        <ele>526.93823199999997</ele>
        <time>2014-11-06T22:48:29Z</time>
      </trkpt>
      <trkpt lat="40.691649969667196" lon="14.680109973996878">
        <ele>530.77874799999995</ele>
        <time>2014-11-06T22:48:29Z</time>
      </trkpt>
      <trkpt lat="40.69167997688055" lon="14.679979970678687">
        <ele>534.61920199999997</ele>
        <time>2014-11-06T22:48:29Z</time>
      </trkpt>
      <trkpt lat="40.691649969667196" lon="14.679890032857656">
        <ele>538.00250200000005</ele>
        <time>2014-11-06T22:48:29Z</time>
      </trkpt>
      <trkpt lat="40.69157000631094" lon="14.679920040071011">
        <ele>540.41039999999998</ele>
        <time>2014-11-06T22:48:29Z</time>
      </trkpt>
      <trkpt lat="40.691619962453842" lon="14.679809985682368">
        <ele>543.27551300000005</ele>
        <time>2014-11-06T22:48:29Z</time>
      </trkpt>
      <trkpt lat="40.69159003905952" lon="14.679779978469014">
        <ele>546.65881300000001</ele>
        <time>2014-11-06T22:48:29Z</time>
      </trkpt>
      <trkpt lat="40.691479984670877" lon="14.679649975150824">
        <ele>551.93188499999997</ele>
        <time>2014-11-06T22:48:29Z</time>
      </trkpt>
      <trkpt lat="40.691289966925979" lon="14.679609993472695">
        <ele>558.18023700000003</ele>
        <time>2014-11-06T22:48:29Z</time>
      </trkpt>
      <trkpt lat="40.691279992461205" lon="14.679530030116439">
        <ele>562.02075200000002</ele>
        <time>2014-11-06T22:48:29Z</time>
      </trkpt>
      <trkpt lat="40.691179996356368" lon="14.679379994049668">
        <ele>566.34887700000002</ele>
        <time>2014-11-06T22:48:29Z</time>
      </trkpt>
      <trkpt lat="40.691089974716306" lon="14.679249990731478">
        <ele>573.08496100000002</ele>
        <time>2014-11-06T22:48:29Z</time>
      </trkpt>
      <trkpt lat="40.691010011360049" lon="14.679089980199933">
        <ele>575.98053000000004</ele>
        <time>2014-11-06T22:48:29Z</time>
      </trkpt>
      <trkpt lat="40.690900040790439" lon="14.679010016843677">
        <ele>581.74127199999998</ele>
        <time>2014-11-06T22:48:29Z</time>
      </trkpt>
      <trkpt lat="40.690789986401796" lon="14.679059972986579">
        <ele>585.09405500000003</ele>
        <time>2014-11-06T22:48:29Z</time>
      </trkpt>
      <trkpt lat="40.69071002304554" lon="14.679010016843677">
        <ele>588.47735599999999</ele>
        <time>2014-11-06T22:48:29Z</time>
      </trkpt>
      <trkpt lat="40.690680015832186" lon="14.678919995203614">
        <ele>595.18292199999996</ele>
        <time>2014-11-06T22:48:29Z</time>
      </trkpt>
      <trkpt lat="40.690659983083606" lon="14.678929969668388">
        <ele>596.64599599999997</ele>
        <time>2014-11-06T22:48:29Z</time>
      </trkpt>
      <trkpt lat="40.690420009195805" lon="14.678819999098778">
        <ele>604.32696499999997</ele>
        <time>2014-11-06T22:48:29Z</time>
      </trkpt>
      <trkpt lat="40.690269973129034" lon="14.678799966350198">
        <ele>607.67974900000002</ele>
        <time>2014-11-06T22:48:29Z</time>
      </trkpt>
      <trkpt lat="40.690039973706007" lon="14.678680021315813">
        <ele>614.41583300000002</ele>
        <time>2014-11-06T22:48:29Z</time>
      </trkpt>
      <trkpt lat="40.689999992027879" lon="14.678610032424331">
        <ele>618.256348</ele>
        <time>2014-11-06T22:48:29Z</time>
      </trkpt>
      <trkpt lat="40.690009966492653" lon="14.678559992462397">
        <ele>621.63958700000001</ele>
        <time>2014-11-06T22:48:29Z</time>
      </trkpt>
      <trkpt lat="40.689920028671622" lon="14.678420014679432">
        <ele>631.24078399999996</ele>
        <time>2014-11-06T22:48:29Z</time>
      </trkpt>
      <trkpt lat="40.689909970387816" lon="14.678369974717498">
        <ele>634.59362799999997</ele>
        <time>2014-11-06T22:48:29Z</time>
      </trkpt>
      <trkpt lat="40.689939977601171" lon="14.67835002578795">
        <ele>637.48919699999999</ele>
        <time>2014-11-06T22:48:29Z</time>
      </trkpt>
      <trkpt lat="40.689930003136396" lon="14.678280036896467">
        <ele>639.89709500000004</ele>
        <time>2014-11-06T22:48:29Z</time>
      </trkpt>
      <trkpt lat="40.689899995923042" lon="14.678220022469759">
        <ele>642.79266399999995</ele>
        <time>2014-11-06T22:48:29Z</time>
      </trkpt>
      <trkpt lat="40.689790025353432" lon="14.678130000829697">
        <ele>648.06573500000002</ele>
        <time>2014-11-06T22:48:29Z</time>
      </trkpt>
      <trkpt lat="40.689779967069626" lon="14.678039979189634">
        <ele>653.82653800000003</ele>
        <time>2014-11-06T22:48:29Z</time>
      </trkpt>
      <trkpt lat="40.689730010926723" lon="14.677990023046732">
        <ele>657.20971699999996</ele>
        <time>2014-11-06T22:48:29Z</time>
      </trkpt>
      <trkpt lat="40.689669996500015" lon="14.677950041368604">
        <ele>663.45812999999998</ele>
        <time>2014-11-06T22:48:29Z</time>
      </trkpt>
      <trkpt lat="40.689730010926723" lon="14.677860019728541">
        <ele>664.89068599999996</ele>
        <time>2014-11-06T22:48:29Z</time>
      </trkpt>
      <trkpt lat="40.68985003978014" lon="14.677800005301833">
        <ele>667.78631600000006</ele>
        <time>2014-11-06T22:48:29Z</time>
      </trkpt>
      <trkpt lat="40.689909970387816" lon="14.677779972553253">
        <ele>671.13909899999999</ele>
        <time>2014-11-06T22:48:29Z</time>
      </trkpt>
      <trkpt lat="40.689960010349751" lon="14.677830012515187">
        <ele>674.49188200000003</ele>
        <time>2014-11-06T22:48:29Z</time>
      </trkpt>
      <trkpt lat="40.690069980919361" lon="14.677739990875125">
        <ele>677.38751200000002</ele>
        <time>2014-11-06T22:48:29Z</time>
      </trkpt>
      <trkpt lat="40.690090013667941" lon="14.677739990875125">
        <ele>680.74029499999995</ele>
        <time>2014-11-06T22:48:29Z</time>
      </trkpt>
      <trkpt lat="40.690220016986132" lon="14.677679976448417">
        <ele>682.66052200000001</ele>
        <time>2014-11-06T22:48:29Z</time>
      </trkpt>
      <trkpt lat="40.690320013090968" lon="14.677649969235063">
        <ele>685.556152</ele>
        <time>2014-11-06T22:48:29Z</time>
      </trkpt>
      <trkpt lat="40.690489998087287" lon="14.677570005878806">
        <ele>693.23706100000004</ele>
        <time>2014-11-06T22:48:29Z</time>
      </trkpt>
      <trkpt lat="40.690559986978769" lon="14.677570005878806">
        <ele>696.62042199999996</ele>
        <time>2014-11-06T22:48:29Z</time>
      </trkpt>
      <trkpt lat="40.690559986978769" lon="14.67757998034358">
        <ele>700.46093800000006</ele>
        <time>2014-11-06T22:48:29Z</time>
      </trkpt>
      <trkpt lat="40.690659983083606" lon="14.677460035309196">
        <ele>705.27667199999996</ele>
        <time>2014-11-06T22:48:29Z</time>
      </trkpt>
      <trkpt lat="40.690780011937022" lon="14.677389962598681">
        <ele>709.604919</ele>
        <time>2014-11-06T22:48:29Z</time>
      </trkpt>
      <trkpt lat="40.690850000828505" lon="14.677240010350943">
        <ele>717.28582800000004</ele>
        <time>2014-11-06T22:48:29Z</time>
      </trkpt>
      <trkpt lat="40.69084002636373" lon="14.677130039781332">
        <ele>721.12628199999995</ele>
        <time>2014-11-06T22:48:29Z</time>
      </trkpt>
      <trkpt lat="40.690880008041859" lon="14.677029959857464">
        <ele>724.47906499999999</ele>
        <time>2014-11-06T22:48:29Z</time>
      </trkpt>
      <trkpt lat="40.69084002636373" lon="14.677000036463141">
        <ele>727.86242700000003</ele>
        <time>2014-11-06T22:48:29Z</time>
      </trkpt>
      <trkpt lat="40.69081999361515" lon="14.676789985969663">
        <ele>735.05572500000005</ele>
        <time>2014-11-06T22:48:29Z</time>
      </trkpt>
      <trkpt lat="40.690759979188442" lon="14.67656996101141">
        <ele>741.79174799999998</ele>
        <time>2014-11-06T22:48:29Z</time>
      </trkpt>
      <trkpt lat="40.69079996086657" lon="14.676540037617087">
        <ele>746.60760500000004</ele>
        <time>2014-11-06T22:48:29Z</time>
      </trkpt>
      <trkpt lat="40.690750004723668" lon="14.676480023190379">
        <ele>748.04016100000001</ele>
        <time>2014-11-06T22:48:29Z</time>
      </trkpt>
      <trkpt lat="40.690729971975088" lon="14.676299979910254">
        <ele>751.88067599999999</ele>
        <time>2014-11-06T22:48:29Z</time>
      </trkpt>
      <trkpt lat="40.690770037472248" lon="14.675799999386072">
        <ele>752.85601799999995</ele>
        <time>2014-11-06T22:48:29Z</time>
      </trkpt>
      <trkpt lat="40.69079996086657" lon="14.675690028816462">
        <ele>756.20880099999999</ele>
        <time>2014-11-06T22:48:29Z</time>
      </trkpt>
      <trkpt lat="40.69079996086657" lon="14.675490036606789">
        <ele>759.10437000000002</ele>
        <time>2014-11-06T22:48:29Z</time>
      </trkpt>
      <trkpt lat="40.690789986401796" lon="14.675370007753372">
        <ele>763.889771</ele>
        <time>2014-11-06T22:48:29Z</time>
      </trkpt>
      <trkpt lat="40.69068999029696" lon="14.675240004435182">
        <ele>768.217896</ele>
        <time>2014-11-06T22:48:29Z</time>
      </trkpt>
      <trkpt lat="40.690699964761734" lon="14.675219971686602">
        <ele>772.54608199999996</ele>
        <time>2014-11-06T22:48:29Z</time>
      </trkpt>
      <trkpt lat="40.690699964761734" lon="14.675219971686602">
        <ele>771.11346400000002</ele>
        <time>2014-11-06T22:48:29Z</time>
      </trkpt>
      <trkpt lat="40.690620001405478" lon="14.675209997221828">
        <ele>771.60119599999996</ele>
        <time>2014-11-06T22:48:29Z</time>
      </trkpt>
      <trkpt lat="40.690659983083606" lon="14.675179990008473">
        <ele>772.08892800000001</ele>
        <time>2014-11-06T22:48:29Z</time>
      </trkpt>
      <trkpt lat="40.690640034154058" lon="14.675140008330345">
        <ele>774.953979</ele>
        <time>2014-11-06T22:48:29Z</time>
      </trkpt>
      <trkpt lat="40.690569961443543" lon="14.675170015543699">
        <ele>778.33727999999996</ele>
        <time>2014-11-06T22:48:29Z</time>
      </trkpt>
      <trkpt lat="40.690540038049221" lon="14.675130033865571">
        <ele>781.20239300000003</ele>
        <time>2014-11-06T22:48:29Z</time>
      </trkpt>
      <trkpt lat="40.690550012513995" lon="14.675030037760735">
        <ele>783.12268099999994</ele>
        <time>2014-11-06T22:48:29Z</time>
      </trkpt>
      <trkpt lat="40.690559986978769" lon="14.675019979476929">
        <ele>786.01824999999997</ele>
        <time>2014-11-06T22:48:29Z</time>
      </trkpt>
      <trkpt lat="40.690429983660579" lon="14.675059961155057">
        <ele>793.21148700000003</ele>
        <time>2014-11-06T22:48:29Z</time>
      </trkpt>
      <trkpt lat="40.690420009195805" lon="14.675089968368411">
        <ele>796.10711700000002</ele>
        <time>2014-11-06T22:48:29Z</time>
      </trkpt>
      <trkpt lat="40.690350020304322" lon="14.675140008330345">
        <ele>802.35546899999997</ele>
        <time>2014-11-06T22:48:29Z</time>
      </trkpt>
      <trkpt lat="40.69023996591568" lon="14.675219971686602">
        <ele>804.76342799999998</ele>
        <time>2014-11-06T22:48:29Z</time>
      </trkpt>
      <trkpt lat="40.690269973129034" lon="14.675419963896275">
        <ele>811.49951199999998</ele>
        <time>2014-11-06T22:48:29Z</time>
      </trkpt>
      <trkpt lat="40.690129995346069" lon="14.675379982218146">
        <ele>821.58837900000003</ele>
        <time>2014-11-06T22:48:29Z</time>
      </trkpt>
      <trkpt lat="40.690020024776459" lon="14.675170015543699">
        <ele>826.86144999999999</ele>
        <time>2014-11-06T22:48:29Z</time>
      </trkpt>
      <trkpt lat="40.690009966492653" lon="14.674949990585446">
        <ele>836.49310300000002</ele>
        <time>2014-11-06T22:48:29Z</time>
      </trkpt>
      <trkpt lat="40.689820032566786" lon="14.674650002270937">
        <ele>851.39782700000001</ele>
        <time>2014-11-06T22:48:29Z</time>
      </trkpt>
      <trkpt lat="40.68980997428298" lon="14.674580013379455">
        <ele>852.83038299999998</ele>
        <time>2014-11-06T22:48:29Z</time>
      </trkpt>
      <trkpt lat="40.689820032566786" lon="14.674580013379455">
        <ele>856.67089799999997</ele>
        <time>2014-11-06T22:48:29Z</time>
      </trkpt>
      <trkpt lat="40.689820032566786" lon="14.674580013379455">
        <ele>854.26293899999996</ele>
        <time>2014-11-06T22:48:29Z</time>
      </trkpt>
      <trkpt lat="40.68980997428298" lon="14.674559980630875">
        <ele>856.67089799999997</ele>
        <time>2014-11-06T22:48:29Z</time>
      </trkpt>
      <trkpt lat="40.68983000703156" lon="14.674529973417521">
        <ele>859.56652799999995</ele>
        <time>2014-11-06T22:48:29Z</time>
      </trkpt>
      <trkpt lat="40.68983000703156" lon="14.674350013956428">
        <ele>868.22277799999995</ele>
        <time>2014-11-06T22:48:29Z</time>
      </trkpt>
      <trkpt lat="40.689879963174462" lon="14.674289999529719">
        <ele>871.57562299999995</ele>
        <time>2014-11-06T22:48:29Z</time>
      </trkpt>
      <trkpt lat="40.689930003136396" lon="14.674110040068626">
        <ele>878.31170699999996</ele>
        <time>2014-11-06T22:48:29Z</time>
      </trkpt>
      <trkpt lat="40.689909970387816" lon="14.674069974571466">
        <ele>880.719604</ele>
        <time>2014-11-06T22:48:29Z</time>
      </trkpt>
      <trkpt lat="40.689999992027879" lon="14.673909964039922">
        <ele>888.40057400000001</ele>
        <time>2014-11-06T22:48:29Z</time>
      </trkpt>
      <trkpt lat="40.689999992027879" lon="14.673880040645599">
        <ele>892.24102800000003</ele>
        <time>2014-11-06T22:48:29Z</time>
      </trkpt>
      <trkpt lat="40.690050031989813" lon="14.673839975148439">
        <ele>894.64892599999996</ele>
        <time>2014-11-06T22:48:29Z</time>
      </trkpt>
      <trkpt lat="40.690039973706007" lon="14.673799993470311">
        <ele>897.05688499999997</ele>
        <time>2014-11-06T22:48:29Z</time>
      </trkpt>
      <trkpt lat="40.690090013667941" lon="14.673750037327409">
        <ele>902.32989499999996</ele>
        <time>2014-11-06T22:48:29Z</time>
      </trkpt>
      <trkpt lat="40.690069980919361" lon="14.673620034009218">
        <ele>904.73785399999997</ele>
        <time>2014-11-06T22:48:29Z</time>
      </trkpt>
      <trkpt lat="40.690080039203167" lon="14.673439990729094">
        <ele>910.986267</ele>
        <time>2014-11-06T22:48:29Z</time>
      </trkpt>
      <trkpt lat="40.689999992027879" lon="14.673230024054646">
        <ele>921.56280500000003</ele>
        <time>2014-11-06T22:48:29Z</time>
      </trkpt>
      <trkpt lat="40.689920028671622" lon="14.673179984092712">
        <ele>924.91558799999996</ele>
        <time>2014-11-06T22:48:29Z</time>
      </trkpt>
      <trkpt lat="40.689930003136396" lon="14.673189958557487">
        <ele>928.29888900000003</ele>
        <time>2014-11-06T22:48:29Z</time>
      </trkpt>
      <trkpt lat="40.689939977601171" lon="14.673160035163164">
        <ele>931.16400099999998</ele>
        <time>2014-11-06T22:48:29Z</time>
      </trkpt>
      <trkpt lat="40.689950035884976" lon="14.673079987987876">
        <ele>934.54730199999995</ele>
        <time>2014-11-06T22:48:29Z</time>
      </trkpt>
      <trkpt lat="40.689990017563105" lon="14.673070013523102">
        <ele>936.95519999999999</ele>
        <time>2014-11-06T22:48:29Z</time>
      </trkpt>
      <trkpt lat="40.690060006454587" lon="14.673040006309748">
        <ele>938.38775599999997</ele>
        <time>2014-11-06T22:48:29Z</time>
      </trkpt>
      <trkpt lat="40.690139969810843" lon="14.672919977456331">
        <ele>945.12383999999997</ele>
        <time>2014-11-06T22:48:29Z</time>
      </trkpt>
      <trkpt lat="40.690169977024198" lon="14.672910002991557">
        <ele>947.53173800000002</ele>
        <time>2014-11-06T22:48:29Z</time>
      </trkpt>
      <trkpt lat="40.690229991450906" lon="14.672930035740137">
        <ele>947.98895300000004</ele>
        <time>2014-11-06T22:48:29Z</time>
      </trkpt>
      <trkpt lat="40.690250024199486" lon="14.672879995778203">
        <ele>948.47668499999997</ele>
        <time>2014-11-06T22:48:29Z</time>
      </trkpt>
      <trkpt lat="40.690320013090968" lon="14.672819981351495">
        <ele>952.31707800000004</ele>
        <time>2014-11-06T22:48:29Z</time>
      </trkpt>
      <trkpt lat="40.690399976447225" lon="14.672859963029623">
        <ele>953.29247999999995</ele>
        <time>2014-11-06T22:48:29Z</time>
      </trkpt>
      <trkpt lat="40.690439958125353" lon="14.672879995778203">
        <ele>955.700378</ele>
        <time>2014-11-06T22:48:29Z</time>
      </trkpt>
      <trkpt lat="40.69041003473103" lon="14.672789974138141">
        <ele>959.053223</ele>
        <time>2014-11-06T22:48:29Z</time>
      </trkpt>
      <trkpt lat="40.690420009195805" lon="14.672740017995238">
        <ele>960.97344999999996</ele>
        <time>2014-11-06T22:48:29Z</time>
      </trkpt>
      <trkpt lat="40.690450016409159" lon="14.672710010781884">
        <ele>964.326233</ele>
        <time>2014-11-06T22:48:29Z</time>
      </trkpt>
      <trkpt lat="40.690380027517676" lon="14.672499960288405">
        <ele>973.47027600000001</ele>
        <time>2014-11-06T22:48:29Z</time>
      </trkpt>
      <trkpt lat="40.69039000198245" lon="14.672480011358857">
        <ele>975.87817399999994</ele>
        <time>2014-11-06T22:48:29Z</time>
      </trkpt>
      <trkpt lat="40.690320013090968" lon="14.672340033575892">
        <ele>981.63891599999999</ele>
        <time>2014-11-06T22:48:29Z</time>
      </trkpt>
      <trkpt lat="40.69025999866426" lon="14.672310026362538">
        <ele>986.45471199999997</ele>
        <time>2014-11-06T22:48:29Z</time>
      </trkpt>
      <trkpt lat="40.69023996591568" lon="14.672189997509122">
        <ele>994.13568099999998</ele>
        <time>2014-11-06T22:48:29Z</time>
      </trkpt>
      <trkpt lat="40.690269973129034" lon="14.672159990295768">
        <ele>997.51892099999998</ele>
        <time>2014-11-06T22:48:29Z</time>
      </trkpt>
      <trkpt lat="40.690439958125353" lon="14.671999979764223">
        <ele>1005.687622</ele>
        <time>2014-11-06T22:48:29Z</time>
      </trkpt>
      <trkpt lat="40.690529979765415" lon="14.672050019726157">
        <ele>1010.015747</ele>
        <time>2014-11-06T22:48:29Z</time>
      </trkpt>
      <trkpt lat="40.690529979765415" lon="14.671990005299449">
        <ele>1010.960632</ele>
        <time>2014-11-06T22:48:29Z</time>
      </trkpt>
      <trkpt lat="40.690559986978769" lon="14.671969972550869">
        <ele>1014.8010860000001</ele>
        <time>2014-11-06T22:48:29Z</time>
      </trkpt>
      <trkpt lat="40.690599968656898" lon="14.671939965337515">
        <ele>1016.2641599999999</ele>
        <time>2014-11-06T22:48:29Z</time>
      </trkpt>
      <trkpt lat="40.690589994192123" lon="14.671890009194613">
        <ele>1018.641602</ele>
        <time>2014-11-06T22:48:29Z</time>
      </trkpt>
      <trkpt lat="40.690680015832186" lon="14.671780038625002">
        <ele>1026.810303</ele>
        <time>2014-11-06T22:48:29Z</time>
      </trkpt>
      <trkpt lat="40.690740030258894" lon="14.671720024198294">
        <ele>1028.2733149999999</ele>
        <time>2014-11-06T22:48:29Z</time>
      </trkpt>
      <trkpt lat="40.69081999361515" lon="14.671509973704815">
        <ele>1022.024902</ele>
        <time>2014-11-06T22:48:29Z</time>
      </trkpt>
      <trkpt lat="40.690910015255213" lon="14.67139002867043">
        <ele>1022.024902</ele>
        <time>2014-11-06T22:48:29Z</time>
      </trkpt>
      <trkpt lat="40.690940022468567" lon="14.671339988708496">
        <ele>1025.377686</ele>
        <time>2014-11-06T22:48:29Z</time>
      </trkpt>
      <trkpt lat="40.691040018573403" lon="14.671400003135204">
        <ele>1026.3530270000001</ele>
        <time>2014-11-06T22:48:29Z</time>
      </trkpt>
      <trkpt lat="40.691110007464886" lon="14.671309981495142">
        <ele>1024.8900149999999</ele>
        <time>2014-11-06T22:48:29Z</time>
      </trkpt>
      <trkpt lat="40.691100033000112" lon="14.671009993180633">
        <ele>1027.2978519999999</ele>
        <time>2014-11-06T22:48:29Z</time>
      </trkpt>
      <trkpt lat="40.691059967502952" lon="14.671009993180633">
        <ele>1030.193481</ele>
        <time>2014-11-06T22:48:29Z</time>
      </trkpt>
      <trkpt lat="40.691080000251532" lon="14.670900022611022">
        <ele>1033.058716</ele>
        <time>2014-11-06T22:48:29Z</time>
      </trkpt>
      <trkpt lat="40.691070025786757" lon="14.67081000097096">
        <ele>1036.9295649999999</ele>
        <time>2014-11-06T22:48:29Z</time>
      </trkpt>
      <trkpt lat="40.691049993038177" lon="14.670800026506186">
        <ele>1039.794678</ele>
        <time>2014-11-06T22:48:29Z</time>
      </trkpt>
      <trkpt lat="40.691080000251532" lon="14.670770019292831">
        <ele>1042.690308</ele>
        <time>2014-11-06T22:48:29Z</time>
      </trkpt>
      <trkpt lat="40.691100033000112" lon="14.670679997652769">
        <ele>1045.5859379999999</ele>
        <time>2014-11-06T22:48:29Z</time>
      </trkpt>
      <trkpt lat="40.691059967502952" lon="14.670640015974641">
        <ele>1048.938721</ele>
        <time>2014-11-06T22:48:29Z</time>
      </trkpt>
    </trkseg>
  </trk>

</gpx>